Volver al catálogo

STARLINK-33558

ActivoComunicacionesVLEO
NORAD 63643·PAYLOAD·🇺🇸 United States

Lanzado Apr 25, 2025 desde Cape Canaveral Space Force Station

Loading…

Próximos Pases (próximas 24 horas)

TLE

ActualizadoSource: CelesTrak SupGP

Época: Sep 14, 2026, 21:29 UTC

1 63643C 25083K   26257.89562500  .00033685  00000+0  12200-2 0  2575
2 63643  43.0020  16.4105 0001700 270.5799 192.1075 15.27561733    13

Sigue STARLINK-33558 en tiempo real con AllMySat

Download on the App Store